Location: Unspecified
(0.0000°N, 0.0000°E)
Time: 11:10:24
(UTC+00:00)

A-11 Canister half - Pass Details

Date: 09 August 2021
Orbit: 1526 x 1683 km, 47.3° (Epoch: 27 September)

Event Time Altitude Azimuth Distance (km) Brightness Sun altitude
Exits shadow 04:56:06 - 204° (SSW) 4,650 11.1 -16.7°
Reaches altitude 10° 04:58:59 10° 198° (SSW) 3,814 10.7 -16.0°
Maximum altitude 05:08:02 43° 130° (SE) 2,180 10.1 -13.8°
Drops below altitude 10° 05:17:18 10° 62° (ENE) 3,913 12.6 -11.6°
Sets 05:20:42 0° 56° (NE) 4,912 13.2 -10.8°
